CLASSIFICA

LUNGHISSIMO DI RIETI

GARE DI CORSA SU STRADA KM 7,4 - 20 - 32,6

RIETI 04/03/2018

DIVISIONI:
KM 20     KM 32     KM 7.4     CLASSIFICA:   ASSOLUTA    M     F    
CATEGORIE:   TUTTE    |   SF   |   SF35   |   SF40   |   SF45   |   SF50   |   SF55   |   SF60   |   SF65   |   SM   |   SM35   |   SM40   |   SM45   |   SM50   |   SM55   |   SM60   |   SM65   |   SM70   |   SM75  
FILTRO:
  Atleta      Team        Pulisci       Atleti classificati KM 32: 192  

Cliccare sulle colonne per cambiare ordinamento Pagina:   | 1 | | 2 | | 3 | | 4 |
Azioni Pos. M/F Cat. P.Cat. Pett Naz Atleta Squadra Tempo Distacco in tempo Distacco in metri Min/Km GIRO 1 GIRO 2 GIRO 3
11SM35032BUCCILLI CARMINEASD ATLETICA SANTA MARINELLA01:49:36 00:00:00 0 00:03:22 00:27:08 00:41:30 00:40:58
22SM40071DI GREGORIO ROBERTOASD TIVOLI MARATHON01:56:01 00:06:25 1.803 00:03:34 00:27:56 00:43:49 00:44:16
33SM06028SANSONE MASSIMILIANOA.S.D. PAVANELLO01:58:16 00:08:40 2.388 00:03:38 00:27:18 00:44:25 00:46:33
44SM06029FELICI LORENZOAMATORI PODISTICA TERNI01:59:33 00:09:57 2.713 00:03:40 00:28:20 00:45:44 00:45:29
55SM4509SERANTONI EGIDIOAMATORI PODISTICA TERNI01:59:48 00:10:12 2.775 00:03:41 00:27:57 00:44:38 00:47:13
66SM401194CASALINI VITTORIOTIRRENO ATLETICA CIVITAVECCHIA02:00:39 00:11:03 2.985 00:03:42 00:28:53 00:45:10 00:46:36
77SM154D'AGOSTINO UMBERTOASD RUNNERS CASALBORDINO02:03:50 00:14:14 3.747 00:03:48 00:29:25 00:47:28 00:46:57
88SM40212NOVARIA ALESSANDROAS ATHLETICS PROMOTION AQ02:03:56 00:14:20 3.770 00:03:48 00:28:02 00:46:04 00:49:50
99SM403112CARDONA CRUZ LUIS ELIASFASHIONSPORT02:05:13 00:15:37 4.065 00:03:51 00:29:21 00:47:32 00:48:20
1010SM4042AGOSTINI LORENZOAMATORI PODISTICA TERNI02:05:32 00:15:56 4.137 00:03:51 00:29:56 00:47:19 00:48:17
1111SM2301FELICI EDOARDOAMATORI PODISTICA TERNI02:06:53 00:17:17 4.440 00:03:54 00:29:21 00:47:41 00:49:51
1212SM351195GUIDA VALERIOTIRRENO ATLETICA CIVITAVECCHIA02:08:53 00:19:17 4.877 00:03:57 00:31:17 00:49:26 00:48:10
1313SM405133VITULANO MATTEOLAZIO RUNNERS TEAM ASD02:09:33 00:19:57 5.020 00:03:58 00:30:33 00:49:25 00:49:35
1414SM451199SFONDALMONDO MASSIMILIANOTX FITNESS SSD ARL02:10:54 00:21:18 5.304 00:04:01 00:31:26 00:49:38 00:49:50
1515SM3141PICCIONI LORI FEDERICOPFIZER ITALIA RUNNING TEAM02:11:16 00:21:40 5.380 00:04:02 00:31:28 00:49:37 00:50:11
1616SM45286CANCELLONI MARCELLOATLETICA AVIS PERUGIA02:14:32 00:24:56 6.041 00:04:08 00:31:26 00:49:38 00:53:28
1717SM501120LEONCINI CLAUDIOGS BANCARI ROMANI02:14:34 00:24:58 6.048 00:04:08 00:31:45 00:52:05 00:50:44
1818SM45322MAGGI SANDROASD ANAGNIMARATHON02:14:38 00:25:02 6.061 00:04:08 00:30:51 00:50:27 00:53:20
1919SM352172ALFANI ENRICORUNCARD02:14:46 00:25:10 6.087 00:04:08 00:32:21 00:51:30 00:50:55
2020SM406135CIRILLO YURILBM SPORT TEAM02:15:02 00:25:26 6.140 00:04:09 00:31:59 00:51:09 00:51:54
2121SM35347CAVACINI CLAUDIOASD OLIMPIAEUR CAMP02:15:33 00:25:57 6.241 00:04:10 00:31:45 00:50:52 00:52:56
221SF350123CASASANTA LAURAGS CAT SPORT ROMA02:17:07 00:27:31 6.542 00:04:12 00:31:18 00:52:32 00:53:17
2322SM40748CETORELLI GIANLUCAASD PALESTRINA RUNNING02:17:32 00:27:56 6.621 00:04:13 00:33:53 00:53:13 00:50:26
2423SM4187D'ANGELI YURILBM SPORT TEAM02:17:52 00:28:16 6.683 00:04:14 00:32:32 00:52:09 00:53:11
2524SM454369CUNEO ANDREADUE PONTI SRL02:18:17 00:28:41 6.762 00:04:15 00:33:20 00:52:46 00:52:11
2625SM408152GIOVANNANGELI CRISTIANOPODISTICA SOLIDARIETA02:18:19 00:28:43 6.768 00:04:15 00:32:22 00:51:35 00:54:22
2726SM45521MAGGI ANTONIOASD ANAGNIMARATHON02:18:36 00:29:00 6.821 00:04:15 00:30:51 00:51:02 00:56:43
282SF350106GABRIELLI PAMELACALCATERRA SPORT ASD02:21:10 00:31:34 7.289 00:04:20 00:33:58 00:53:08 00:54:04
2927SM502130MEROLLI ITALOLA SBARRA I GRILLI02:21:10 00:31:34 7.289 00:04:20 00:33:39 00:53:28 00:54:03
3028SM503129DELL'AQUIA DARIOLA SBARRA I GRILLI02:22:14 00:32:38 7.479 00:04:22 00:34:11 00:54:29 00:53:34
3129SM651144PENTANGELO MARIOPODISTICA CIAMPINO02:22:41 00:33:05 7.558 00:04:23 00:31:44 00:54:33 00:56:24
3230SM504119JORIO VALERIOGS BANCARI ROMANI02:23:21 00:33:45 7.675 00:04:24 00:34:54 00:54:36 00:53:51
333SF0196NASSO SILVIATIRRENO ATLETICA CIVITAVECCHIA02:23:59 00:34:23 7.784 00:04:25 00:33:38 00:53:53 00:56:28
3431SM35473D'ANGELO LUCIANOASD TOCCO RUNNER02:24:11 00:34:35 7.819 00:04:25 00:35:01 00:55:10 00:54:00
3532SM35529ERCOLE ROBERTOASD ATLETICA ABRUZZO LAQUILA02:24:29 00:34:53 7.870 00:04:26 00:34:22 00:55:40 00:54:27
3633SM551131SALVATI LANFRANCOLA SBARRA I GRILLI02:24:36 00:35:00 7.890 00:04:26 00:34:11 00:54:29 00:55:56
3734SM505162ROSSINI MASSIMILIANOPODISTICA SOLIDARIETA02:25:22 00:35:46 8.021 00:04:28 00:33:31 00:55:08 00:56:43
3835SM35662PITARI ALESSIOASD RUNNERS SAN GEMINI02:26:34 00:36:58 8.222 00:04:30 00:35:15 00:55:13 00:56:06
3936SM5299CALUORI MARIORUNCARD02:27:59 00:38:23 8.455 00:04:32 00:35:32 00:55:21 00:57:06
4037SM601116SQUILLANTE MAURIZIOGIOVANNI SCAVO 2000 ATL02:28:41 00:39:05 8.569 00:04:34 00:36:55 00:57:05 00:54:41
4138SM50688REALI GABRIELEATLETICA AVIS PERUGIA02:28:56 00:39:20 8.609 00:04:34 00:35:18 00:57:29 00:56:09
4239SM627CIOCCA ALESSANDROASD ATLETICA ABRUZZO LAQUILA02:29:04 00:39:28 8.631 00:04:34 00:34:22 00:58:01 00:56:41
434SF400169BINI TIZIANAPODISTICA SOLIDARIETA'02:29:12 00:39:36 8.652 00:04:35 00:36:27 00:56:58 00:55:47
4440SM40939MIOZZI ANNIBALEASD CENTRO FITNESS MONTELLO02:29:50 00:40:14 8.753 00:04:36 00:36:49 00:57:22 00:55:39
455SF400198PIASTRA LORENATX FITNESS SSD ARL02:30:16 00:40:40 8.822 00:04:37 00:34:40 00:56:35 00:59:01
4641SM456375GACCETTA ROMANOLAZIO RUNNERS TEAM A.S.D.02:30:35 00:40:59 8.872 00:04:37 00:35:16 00:57:30 00:57:49
4742SM457173ANTINORI SIMONERUNCARD02:32:28 00:42:52 9.165 00:04:41 00:32:50 00:55:30 01:04:08
4843SM401066IRILLI EMILIANOASD SEMPRE DI CORSA TEAM02:32:46 00:43:10 9.211 00:04:41 00:37:00 00:59:00 00:56:46
4944SM45826CANALI STEFANOASD ATLETICA ABRUZZO LAQUILA02:32:49 00:43:13 9.219 00:04:41 00:35:31 00:57:57 00:59:21
5045SM401163BATTISTA IVANOASD SEMPRE DI CORSA TEAM02:32:50 00:43:14 9.221 00:04:41 00:37:02 00:58:58 00:56:50
5146SM459192CARLOMAGNO ANDREASSD EUROMA SPORTING CENTER02:32:51 00:43:15 9.224 00:04:41 00:35:02 00:58:28 00:59:21
5247SM767PITTI ALESSIOASD SEMPRE DI CORSA TEAM02:32:51 00:43:15 9.224 00:04:41 00:37:00 00:59:00 00:56:51
5348SM401238DI VICO ANTONIOASD CENTRO FITNESS MONTELLO02:33:04 00:43:28 9.257 00:04:42 00:36:41 00:57:24 00:58:59
5449SM55228DUNDEE GIAMPAOLOASD ATLETICA ABRUZZO LAQUILA02:33:21 00:43:45 9.300 00:04:42 00:36:37 00:58:01 00:58:43
5550SM451042VITTORE ALESSANDROASD GP MONTI DELLA TOLFA LAIRONE02:33:57 00:44:21 9.391 00:04:43 00:36:31 00:57:55 00:59:31
5651SM553160PICCIONI FRANCOPODISTICA SOLIDARIETA02:34:05 00:44:29 9.411 00:04:44 00:36:31 00:57:07 01:00:27
5752SM602158NUZZI DOMENICOPODISTICA SOLIDARIETA02:34:26 00:44:50 9.464 00:04:44 00:37:31 00:59:00 00:57:55
5853SM8179D'ALESSANDRIS ANDREARUNCARD02:34:34 00:44:58 9.484 00:04:45 00:38:11 00:58:52 00:57:31
596SF401149CARDARELLI MARCELLAPODISTICA SOLIDARIETA02:34:49 00:45:13 9.521 00:04:45 00:36:31 00:57:48 01:00:30
6054SM507191FORNITI TERENZIOSABINA MARATHON CLUB02:35:33 00:45:57 9.630 00:04:46 00:37:19 00:58:49 00:59:25
6155SM451118COLLENI UMBERTOASD ANAGNIMARATHON02:35:39 00:46:03 9.644 00:04:47 00:32:44 00:56:46 01:06:09
6256SM4512176CECCHI ANDREARUNCARD02:35:50 00:46:14 9.671 00:04:47 00:36:34 00:58:47 01:00:29
6357SM508166TADDEI MARCOPODISTICA SOLIDARIETA02:36:24 00:46:48 9.754 00:04:48 - 00:59:22 -
6458SM401364D'ALESSIO ALEXIOASD SEMPRE DI CORSA TEAM02:36:40 00:47:04 9.793 00:04:48 00:37:38 00:59:57 00:59:05
6559SM35768RINALDI ADRIANOASD SEMPRE DI CORSA TEAM02:36:40 00:47:04 9.793 00:04:48 00:37:37 00:59:57 00:59:06
667SF451108DELLA GIOVANNA ALLEGRADUE PONTI SRL02:37:15 00:47:39 9.878 00:04:49 00:37:56 00:59:30 00:59:49
6760SM50934MAGGIORI ANDREAASD ATLETICO MONTEROTONDO02:37:17 00:47:41 9.883 00:04:50 00:39:24 00:58:23 00:59:30
688SF40295ALBERTINI GIOVANNAATLETICA PEGASO02:37:27 00:47:51 9.907 00:04:50 00:39:12 01:00:10 00:58:05
6961SM9189GATTA ENRICORUNNING TEAM ALATRI02:37:33 00:47:57 9.921 00:04:50 00:33:26 00:56:53 01:07:14
7062SM554101LAURI FRANCESCOATLETICA PEGASO02:37:36 00:48:00 9.928 00:04:50 00:37:56 00:59:41 00:59:59
7163SM501099FARNESI ANDREAATLETICA PEGASO02:38:00 00:48:24 9.986 00:04:51 - - -
7264SM4513379MASCIOTTI VANIOAMATORI PODISTICA TERNI02:38:50 00:49:14 10.104 00:04:52 00:36:45 01:00:18 01:01:47
7365SM4514111VIOLA FEDERICODUE PONTI SRL02:38:54 00:49:18 10.114 00:04:53 00:37:57 00:59:30 01:01:27
7466SM4014378GIORDANO LORENZOAMATORI PODISTICA TERNI02:39:07 00:49:31 10.145 00:04:53 00:36:45 01:00:18 01:02:04
7567SM358159PERROTTA ALESSANDROPODISTICA SOLIDARIETA02:39:48 00:50:12 10.241 00:04:54 00:38:53 01:05:02 00:55:53
7668SM4015168VENTURA ALESSANDROPODISTICA SOLIDARIETA02:40:05 00:50:29 10.280 00:04:55 00:37:55 00:59:38 01:02:32
7769SM401636DELLISOLA FABRIZIOASD BIKE 99 LAQUILONE02:40:32 00:50:56 10.343 00:04:56 00:35:20 00:58:56 01:06:16
7870SM5011180LATINI PATRIZIORUNCARD02:40:50 00:51:14 10.384 00:04:56 00:38:30 01:01:12 01:01:08
7971SM5012161RODOLICO MASSIMOPODISTICA SOLIDARIETA02:41:03 00:51:27 10.414 00:04:56 00:37:55 00:59:53 01:03:15
809SF185BARBERINI MICHELAATLETICA AVIS PERUGIA02:41:43 00:52:07 10.506 00:04:58 00:39:23 01:01:35 01:00:45
8172SM4017145MONTECCHIANI NIKOPODISTICA MYRICAE ASSCULTAMB02:42:36 00:53:00 10.626 00:04:59 00:39:12 01:01:46 01:01:38
8273SM451569TRUSIANI GIAMPIEROASD SEMPRE DI CORSA TEAM02:42:44 00:53:08 10.644 00:05:00 00:38:12 01:02:03 01:02:29
8310SF351250MAIO SIMONAVIRTUS VILLA ADA02:42:47 00:53:11 10.650 00:05:00 00:38:18 01:00:27 01:04:02
8474SM501376MIANI PIEROASD TOCCO RUNNER02:42:47 00:53:11 10.650 00:05:00 00:38:22 01:02:25 01:02:00
8575SM65249BONANNI ANTONIOASD PIANO MA ARRIVIAMO02:43:33 00:53:57 10.753 00:05:01 00:36:42 01:00:47 01:06:04
8611SF28MARTONI CATERINAAMATORI PODISTICA TERNI02:43:44 00:54:08 10.778 00:05:01 00:39:12 01:01:46 01:02:46
8776SM401861ANDRIELLI VALERIOASD RUNNERS SAN GEMINI02:43:44 00:54:08 10.778 00:05:01 00:39:12 01:01:46 01:02:46
8877SM501498DE SOSSI ARMANDO MARIAATLETICA PEGASO02:43:56 00:54:20 10.804 00:05:02 00:39:27 01:01:52 01:02:37
8912SF452153LIPPI FRANCESCAPODISTICA SOLIDARIETA02:44:19 00:54:43 10.855 00:05:02 00:37:55 01:01:02 01:05:22
9013SF50158PESAVENTO LIVIAASD RUNNERS FOR EMERGENCY02:45:03 00:55:27 10.952 00:05:04 00:39:29 01:02:05 01:03:29
9178SM5015128ASSANTE CLAUDIOLA SBARRA I GRILLI02:45:13 00:55:37 10.974 00:05:04 00:40:06 01:03:37 01:01:30
9214SF403155MELLA ELEONORAPODISTICA SOLIDARIETA02:45:21 00:55:45 10.991 00:05:04 00:40:06 01:03:36 01:01:39
9315SF40441FABRIZI SIMONAASD FREE RUNNERS02:45:56 00:56:20 11.067 00:05:05 00:39:21 01:02:55 01:03:40
9479SM401940D'AMATO FEDERICOASD FREE RUNNERS02:45:56 00:56:20 11.067 00:05:05 00:39:21 01:02:55 01:03:40
9516SF405363MONTANARI ANNALISAG.S. VIGILI DEL FUOCO02:46:17 00:56:41 11.112 00:05:06 00:37:31 01:00:56 01:07:50
9680SM653115DIARIO MARIOFULMINI SAETTE02:46:49 00:57:13 11.181 00:05:07 00:37:57 01:02:49 01:06:03
9781SM65410VALZANO ANTONIOAMATORI PODISTICA TERNI02:47:00 00:57:24 11.205 00:05:07 00:39:26 01:03:10 01:04:24
9882SM4516147BORTOLONI FABIOPODISTICA SOLIDARIETA02:47:02 00:57:26 11.209 00:05:07 00:40:57 01:03:58 01:02:07
9983SM40204ASTOLFI ALESSANDROAMATORI PODISTICA TERNI02:47:04 00:57:28 11.213 00:05:08 00:39:26 01:03:11 01:04:27
10084SM451731NAVIGLIO VITO VINCENZOASD ATLETICA ABRUZZO LAQUILA02:47:46 00:58:10 11.302 00:05:09 00:40:27 01:04:53 01:02:26
10117SF50287DEL BIANCO SILVIAATLETICA AVIS PERUGIA02:48:08 00:58:32 11.349 00:05:09 00:39:23 01:02:21 01:06:24
10218SF453367PERILLI LUCIAPODISTICA SOLIDARIETA'02:48:59 00:59:23 11.456 00:05:11 00:39:57 01:03:16 01:05:46
10385SM555100FRASCARELLI LUCAATLETICA PEGASO02:49:15 00:59:39 11.489 00:05:12 00:41:20 01:04:23 01:03:32
10486SM55697COCCIOLETTI STEFANOATLETICA PEGASO02:49:31 00:59:55 11.522 00:05:12 00:39:29 01:03:37 01:06:25
10519SF406171ROSSETTI CRISTINARIFONDAZIONE PODISTICA02:49:50 01:00:14 11.561 00:05:13 00:42:45 01:05:22 01:01:43
10620SF503164SPESCHA LAURAPODISTICA SOLIDARIETA02:50:26 01:00:50 11.636 00:05:14 00:39:57 01:04:16 01:06:13
10787SM5016122SQUARCIA ALESSANDROGS BANCARI ROMANI ASD02:50:48 01:01:12 11.681 00:05:14 00:40:52 01:04:59 01:04:57
10821SF407200RAFFO FEDERICAUISP COMITATO TERRLE ROMA02:51:13 01:01:37 11.731 00:05:15 00:40:25 01:05:52 01:04:56
10988SM5017105SOBRINO GIAN PAOLOBERGAMO STARS ATLETICA02:52:02 01:02:26 11.831 00:05:17 00:36:28 01:01:55 01:13:39
11089SM603197CANAPARI FRANCESCOTX FITNESS SSD ARL02:52:58 01:03:22 11.943 00:05:18 00:40:26 01:04:59 01:07:33
11190SM55717ASCENZI MARIOASD ANAGNIMARATHON02:53:10 01:03:34 11.966 00:05:19 00:40:03 01:04:03 01:09:04
11291SM4518296LISI CLAUDIOATL. FIANO ROMANO02:53:31 01:03:55 12.008 00:05:19 00:38:31 01:03:12 01:11:48
11392SM451915GAVIOLI GIULIANOASD ATL VILLA GUGLIELMI02:53:47 01:04:11 12.040 00:05:20 00:42:46 01:06:08 01:04:53
11493SM4520184TENTONI RICCARDORUNCARD02:53:56 01:04:20 12.057 00:05:20 00:42:15 01:06:06 01:05:35
11594SM359182LORENZONI STEFANORUNCARD02:54:06 01:04:30 12.077 00:05:20 00:40:14 01:05:11 01:08:41
11622SF454251TOMMASIELLO LUCIAWORLD RUNNING ACADEMY02:54:10 01:04:34 12.085 00:05:21 00:41:16 01:06:03 01:06:51
11795SM558294MANSI MARCOTERRA DELLO SPORT ASD02:54:11 01:04:35 12.087 00:05:21 00:41:16 01:06:03 01:06:52
11896SM559121SAMMARCO STEFANOGS BANCARI ROMANI02:54:32 01:04:56 12.128 00:05:21 00:42:32 01:05:42 01:06:18
11997SM35105CIOGLI FRANCESCOAMATORI PODISTICA TERNI02:54:44 01:05:08 12.151 00:05:22 00:41:32 01:05:37 01:07:35
12098SM50186027SAUZZI PATRIZIOASD PIANO MA ARRIVIAMO02:55:27 01:05:51 12.235 00:05:23 00:42:00 01:06:48 01:06:39
12199SM4521181LOREFICE GIANLUCARUNCARD02:55:39 01:06:03 12.258 00:05:23 00:42:17 01:06:05 01:07:17
122100SM501952ROSATI ROBERTOASD PODISTICA VEIO02:56:12 01:06:36 12.322 00:05:24 00:40:49 01:05:54 01:09:29
123101SM452253SPERANZA LUCAASD RUNNER TRAINER02:57:55 01:08:19 12.517 00:05:28 00:42:10 01:06:40 01:09:05
124102SM452355COSTI SERGIOASD RUNNERS FOR EMERGENCY02:57:56 01:08:20 12.519 00:05:28 00:42:10 01:06:40 01:09:06
125103SM452416IAQUINTA MASSIMOASD ATL VILLA GUGLIELMI02:58:05 01:08:29 12.536 00:05:28 00:42:45 01:06:10 01:09:10
12623SF55114LEBORONI PIEROZZI ELISABETTAAS ROMA ROAD RCLUB02:58:07 01:08:31 12.540 00:05:28 00:42:55 01:07:14 01:07:58
127104SM5020247PATRIZI ROBERTOVILLA ADA GREEN RUNNER02:58:09 01:08:33 12.544 00:05:28 00:42:56 01:07:12 01:08:01
128105SM1094PANI FRANCESCOATLETICA PALOMBARA02:58:44 01:09:08 12.609 00:05:29 00:40:53 01:05:01 01:12:50
12924SF408134CIACCIA CHIARALBM SPORT TEAM02:58:50 01:09:14 12.620 00:05:29 00:41:34 01:07:35 01:09:41
13025SF35220FRATTALE FEDERICAASD ANAGNIMARATHON03:01:02 01:11:26 12.863 00:05:33 00:40:13 01:08:06 01:12:43
131106SM5021248GOLINO ENRICOVIRTUS VILLA ADA03:01:26 01:11:50 12.907 00:05:34 00:43:49 01:09:32 01:08:05
132107SM604249MACI CARLOVIRTUS VILLA ADA03:03:51 01:14:15 13.165 00:05:38 00:43:50 01:09:33 01:10:28
133108SM4021377CISTERNINO CHRISTIANVIRTUS VILLA ADA03:04:04 01:14:28 13.188 00:05:39 00:43:51 01:09:33 01:10:40
13426SF455117CECCHINI MARAGIOVANNI SCAVO VELLETRI03:04:11 01:14:35 13.201 00:05:39 00:42:48 01:10:27 01:10:56
135109SM4525132TOMASSI FABRIZIOLAZIO RUNNERS TEAM ASD03:05:24 01:15:48 13.328 00:05:41 00:41:18 01:11:02 01:13:04
136110SM5510170IACOPONI STEFANOPUROSANGUE ATHLETICS CLUB03:05:28 01:15:52 13.335 00:05:41 00:46:13 01:11:17 01:07:58
137111SM4022190STRAMACCIONI DANIELERUNNING TEAM ALATRI03:05:43 01:16:07 13.361 00:05:42 00:44:00 01:10:53 01:10:50
138112SM502213FLORIO FABIOAS ROMA ROAD RCLUB03:06:08 01:16:32 13.404 00:05:43 00:41:13 01:07:00 01:17:55
13927SF504136FALCHETTI ANNA MARIALUNATICI ELLERA CORCIANO ASD03:07:37 01:18:01 13.556 00:05:45 00:44:35 01:11:21 01:11:41
140113SM452691POLISENA GIANLUCAATLETICA CECCANO03:08:56 01:19:20 13.688 00:05:48 00:46:35 01:10:15 01:12:06
141114SM1193BARTUCCA SIMONEATLETICA PALOMBARA03:11:45 01:22:09 13.966 00:05:53 00:43:06 01:13:12 01:15:27
142115SM502319FINOCCHIO ANDREAASD ANAGNIMARATHON03:11:48 01:22:12 13.971 00:05:53 00:40:13 01:08:07 01:23:28
143116SM605114ARISTEI ROBERTOFORHANS TEAM03:11:53 01:22:17 13.979 00:05:53 00:40:17 01:10:48 01:20:48
14428SF353165TABACCHIERA EMANUELAPODISTICA SOLIDARIETA03:11:56 01:22:20 13.984 00:05:53 00:43:15 01:13:41 01:15:00
145117SM5024157MORELLI GIUSEPPEPODISTICA SOLIDARIETA03:11:56 01:22:20 13.984 00:05:53 00:43:15 01:13:41 01:15:00
14629SF409151DELLA BELLA TANIAPODISTICA SOLIDARIETA03:12:03 01:22:27 13.995 00:05:54 00:41:01 01:10:23 01:20:39
147118SM5025137MENCONI ANTONELLOLUNATICI ELLERA CORCIANO ASD03:12:17 01:22:41 14.018 00:05:54 00:39:53 01:08:51 01:23:33
148119SM5026376FASULO GAETANOATL. PEGASO03:14:21 01:24:45 14.215 00:05:58 00:41:20 01:09:18 01:23:43
14930SF45657PESAVENTO ELENAASD RUNNERS FOR EMERGENCY03:14:37 01:25:01 14.241 00:05:58 00:43:23 01:09:35 01:21:39
15031SF505154MAURICI CRISTINAPODISTICA SOLIDARIETA03:15:51 01:26:15 14.356 00:06:01 00:43:16 01:09:43 01:22:52
15132SF45770SEZZI GIORGIAASD TEAM ATLETICA UISP03:16:54 01:27:18 14.453 00:06:02 00:47:08 01:13:58 01:15:48
152120SM452778DI PIETRA DARIOASD VILLA DE SANCTIS03:16:59 01:27:23 14.461 00:06:03 00:44:44 01:13:42 01:18:33
153121SM70145FORTE CARLOASD MEDITERRANEA OSTIA03:17:16 01:27:40 14.487 00:06:03 00:43:51 01:12:53 01:20:32
154122SM35116DOMENICONI LUCAAMATORI PODISTICA TERNI03:17:17 01:27:41 14.489 00:06:03 00:45:26 01:13:01 01:18:50
155123SM5027186BAIONE FABRIZIORUNFOREVER APRILIA03:18:24 01:28:48 14.591 00:06:05 00:47:59 01:14:20 01:16:05
156124SM4528175BOLLICI GRAZIANORUNCARD03:19:15 01:29:39 14.667 00:06:07 00:42:16 01:06:40 01:30:19
157125SM551183PIZZUTI ANDREA PAOLO MICHELEATL MONTE MARIO03:19:46 01:30:10 14.714 00:06:08 00:47:24 01:16:19 01:16:03
158126SM351277CIOLFI ROBERTOASD VILLA DE SANCTIS03:20:17 01:30:41 14.760 00:06:09 00:44:43 01:13:44 01:21:50
159127SM702143BIANCO GIOVANNIPODISTICA CIAMPINO03:20:40 01:31:04 14.794 00:06:09 00:45:26 01:15:33 01:19:41
16033SF506142NANNI ROBERTAPIETRALUNGA RUNNERS ASD03:21:33 01:31:57 14.872 00:06:11 00:44:45 01:14:47 01:22:01
161128SM606167TIBERI VITTORIOPODISTICA SOLIDARIETA03:22:07 01:32:31 14.922 00:06:12 00:45:46 01:14:16 01:22:05
16234SF4010188MOSSUCCA FILOMENARUNFOREVER APRILIA03:22:26 01:32:50 14.949 00:06:13 00:47:58 01:16:21 01:18:07
163129SM4529185ANDREOTTI ENRICORUNFOREVER APRILIA03:22:26 01:32:50 14.949 00:06:13 00:47:56 01:16:23 01:18:07
16435SF507177CEPARANO ANTONELLARUNCARD03:24:41 01:35:05 15.143 00:06:17 00:48:14 01:16:22 01:20:05
165130SM5028183PENNACCHIO GAETANORUNCARD03:24:41 01:35:05 15.143 00:06:17 00:48:14 01:16:22 01:20:05
16636SF458163SCALA ANTONIETTAPODISTICA SOLIDARIETA03:25:25 01:35:49 15.206 00:06:18 00:43:32 01:15:36 01:26:17
167131SM402330FABRIZIO GIANLUCAASD ATLETICA ABRUZZO LAQUILA03:26:18 01:36:42 15.280 00:06:20 00:46:31 01:14:30 01:25:17
168132SM1290FEDELE MATTIAATLETICA CECCANO03:26:24 01:36:48 15.289 00:06:20 00:46:35 01:14:14 01:25:35
16937SF601139TRANQUILLI GIOVANNANUOVA PODISTICA LATINA03:27:58 01:38:22 15.419 00:06:23 00:49:16 01:18:02 01:20:40
170133SM5029138TOGNI ENRICOMARATHON TRUPPEN ASD03:27:58 01:38:22 15.419 00:06:23 00:50:18 01:17:06 01:20:34
17138SF45956FLOQUET VALERIAASD RUNNERS FOR EMERGENCY03:30:17 01:40:41 15.608 00:06:27 00:47:21 01:18:19 01:24:37
17239SF55243BARONI SILVIAASD MARATONABILI ONLUS03:32:17 01:42:41 15.768 00:06:31 00:47:30 01:20:13 01:24:34
173134SM65537ARCAI CHIRRA ADALBERTOASD CENTRO FITNESS MONTELLO03:33:06 01:43:30 15.833 00:06:32 00:45:41 01:16:00 01:31:25
17440SF5531AGABITI CAROLINAAMATORI PODISTICA TERNI03:36:45 01:47:09 16.115 00:06:39 00:47:33 01:19:43 01:29:29
17541SF45103ALMADORI MICHELAAMATORI PODISTICA TERNI03:36:46 01:47:10 16.117 00:06:39 00:47:35 01:19:47 01:29:24
176135SM6567GENNARI GIULIANOAMATORI PODISTICA TERNI03:36:46 01:47:10 16.117 00:06:39 00:47:35 01:19:39 01:29:32
17742SF508103CREMISI IOLANDABERGAMO STARS ATLETICA03:39:06 01:49:30 16.292 00:06:43 00:51:01 01:22:01 01:26:04
17843SF50951RECCHIA GERMANAASD PODISTICA VEIO03:39:09 01:49:33 16.296 00:06:43 00:47:30 01:21:14 01:30:25
179136SM65746PELLICCIA VINCENZOASD MEDITERRANEA OSTIA03:39:51 01:50:15 16.348 00:06:45 00:48:12 01:24:21 01:27:18
18044SF451196BONEMEI CRISTINAATLETICA PEGASO03:41:26 01:51:50 16.464 00:06:48 00:49:15 01:23:27 01:28:44
18145SF380ERCOLI STEFANIAASD THINK POSITIVE03:41:38 01:52:02 16.478 00:06:48 00:47:06 01:25:36 01:28:56
182137SM5512102MINNUCCI MARCOATLETICA PEGASO03:42:37 01:53:01 16.550 00:06:50 00:49:04 01:21:08 01:32:25
18346SF354146BISOGNI EMANUELAPODISTICA SOLIDARIETA03:43:57 01:54:21 16.645 00:06:52 00:50:50 01:23:20 01:29:47
18447SF4512140VIGLIANTE MARIA MARTINANUOVA PODISTICA LATINA03:47:12 01:57:36 16.873 00:06:58 00:49:12 01:21:03 01:36:57
185138SM503072CRISANTE GIANLUCAASD TOCCO RUNNER03:48:20 01:58:44 16.951 00:07:00 00:47:34 01:21:14 01:39:32
186139SM60774MELCHIORRE GIUSEPPEASD TOCCO RUNNER03:48:34 01:58:58 16.967 00:07:01 00:46:57 01:17:11 01:44:26
18748SF475MELCHIORRE MARIKAASD TOCCO RUNNER03:48:34 01:58:58 16.967 00:07:01 00:46:27 01:17:41 01:44:26
18849SF65165DE LUCA LARAASD SEMPRE DI CORSA TEAM03:49:54 02:00:18 17.058 00:07:03 00:52:10 01:28:39 01:29:05
189140SM503179GRAZIANI CRISTIANOASSATLLIBERTAS ORVIETO03:52:14 02:02:38 17.214 00:07:07 00:41:33 01:19:54 01:50:47
190141SM751312DONARELLI VALERIOASD RUNNERS RIETI TOUR03:52:25 02:02:49 17.226 00:07:08 00:49:54 01:31:14 01:31:17
19150SF35544FALASCA VANESSAASD MEDITERRANEA OSTIA03:53:39 02:04:03 17.308 00:07:10 00:50:50 01:25:21 01:37:28
192142SM5032150CIACCIO GIUSEPPEPODISTICA SOLIDARIETA03:55:27 02:05:51 17.424 00:07:13 00:52:08 01:24:17 01:39:02
Righe per pagina::     TUTTE    |   30   |   50   |   100   Pagina:   | 1 | | 2 | | 3 | | 4 |